DAL1341 KFLL-KATL

Flight info

Callsign DAL1341
Flight time 1h 26m
Altitude 35000
Route FRSBE2 STYMY Q77 SHRKS LAIRI LARZZ JJEDI4
Aircraft A321/M-SDE3FGHIRWY/LB1

Departure

Time 2026-05-07 20:25
Airport Fort Lauderdale Hollywood International Airport (KFLL)

Arrival

Time 2026-05-07 21:51
Airport Hartsfield Jackson Atlanta International Airport (KATL)
Time Latitude Longitude Altitude Speed Heading
2026-05-07 19:58 26.07291 -80.14427 16 ft 0 kts 102°
2026-05-07 20:13 26.07292 -80.14436 16 ft 4 kts 99°
2026-05-07 20:13 26.07293 -80.14465 16 ft 4 kts 75°
2026-05-07 20:14 26.07282 -80.14488 17 ft 4 kts 24°
2026-05-07 20:14 26.07271 -80.14492 19 ft 0 kts 360°
2026-05-07 20:17 26.07272 -80.14492 19 ft 1 kts 360°
2026-05-07 20:17 26.07298 -80.14492 17 ft 6 kts 360°
2026-05-07 20:18 26.07337 -80.14492 16 ft 5 kts 360°
2026-05-07 20:18 26.07373 -80.14492 16 ft 6 kts 360°
2026-05-07 20:18 26.07393 -80.14492 16 ft 1 kts
2026-05-07 20:18 26.07394 -80.14492 16 ft 1 kts
2026-05-07 20:19 26.07396 -80.14492 16 ft 0 kts
2026-05-07 20:19 26.07400 -80.14493 16 ft 2 kts 353°
2026-05-07 20:19 26.07439 -80.14543 16 ft 15 kts 288°
2026-05-07 20:19 26.07474 -80.14662 16 ft 16 kts 288°
2026-05-07 20:20 26.07522 -80.14766 16 ft 15 kts 310°
2026-05-07 20:20 26.07561 -80.14857 17 ft 13 kts 272°
2026-05-07 20:20 26.07562 -80.14955 16 ft 13 kts 270°
2026-05-07 20:20 26.07562 -80.15073 16 ft 16 kts 270°
2026-05-07 20:21 26.07563 -80.15202 16 ft 17 kts 270°
2026-05-07 20:21 26.07564 -80.15333 16 ft 17 kts 270°
2026-05-07 20:21 26.07564 -80.15467 16 ft 18 kts 270°
2026-05-07 20:21 26.07565 -80.15604 16 ft 18 kts 270°
2026-05-07 20:22 26.07566 -80.15740 16 ft 18 kts 270°
2026-05-07 20:22 26.07566 -80.15888 16 ft 20 kts 271°
2026-05-07 20:22 26.07568 -80.16052 17 ft 22 kts 270°
2026-05-07 20:22 26.07568 -80.16231 17 ft 24 kts 271°
2026-05-07 20:23 26.07570 -80.16406 17 ft 20 kts 270°
2026-05-07 20:23 26.07570 -80.16552 17 ft 16 kts 270°
2026-05-07 20:23 26.07614 -80.16633 17 ft 12 kts 356°
2026-05-07 20:23 26.07683 -80.16618 18 ft 9 kts 43°
2026-05-07 20:24 26.07696 -80.16554 18 ft 11 kts 91°
2026-05-07 20:24 26.07693 -80.16291 21 ft 67 kts 90°
2026-05-07 20:24 26.07689 -80.15533 16 ft 125 kts 90°
2026-05-07 20:24 26.07689 -80.14408 88 ft 160 kts 91°
2026-05-07 20:25 26.07714 -80.13200 728 ft 154 kts 90°
2026-05-07 20:25 26.07754 -80.12011 1295 ft 155 kts 90°
2026-05-07 20:25 26.07790 -80.10804 1841 ft 159 kts 90°
2026-05-07 20:25 26.07967 -80.09513 2081 ft 180 kts 71°
2026-05-07 20:26 26.08601 -80.08248 2236 ft 201 kts 50°
2026-05-07 20:26 26.09674 -80.07144 2347 ft 221 kts 34°
2026-05-07 20:26 26.11082 -80.06300 2494 ft 241 kts 19°
2026-05-07 20:26 26.12691 -80.05684 3006 ft 247 kts 18°
2026-05-07 20:27 26.14346 -80.05154 3600 ft 248 kts
2026-05-07 20:27 26.16064 -80.05067 4199 ft 248 kts 354°
2026-05-07 20:27 26.17809 -80.05482 4622 ft 264 kts 339°
2026-05-07 20:27 26.19556 -80.06175 5314 ft 269 kts 339°
2026-05-07 20:28 26.21242 -80.07101 6003 ft 273 kts 323°
2026-05-07 20:28 26.22620 -80.08568 6621 ft 278 kts 306°
2026-05-07 20:28 26.23538 -80.10471 7268 ft 281 kts 290°
2026-05-07 20:28 26.24246 -80.12507 7963 ft 283 kts 290°
2026-05-07 20:29 26.24972 -80.14559 8623 ft 287 kts 291°
2026-05-07 20:29 26.25833 -80.16580 9233 ft 292 kts 301°
2026-05-07 20:29 26.26936 -80.18501 9882 ft 296 kts 302°
2026-05-07 20:29 26.28038 -80.20430 10337 ft 305 kts 302°
2026-05-07 20:30 26.29214 -80.22497 10458 ft 326 kts 301°
2026-05-07 20:30 26.30467 -80.24700 10596 ft 346 kts 301°
2026-05-07 20:30 26.31773 -80.26997 11025 ft 354 kts 301°
2026-05-07 20:30 26.33094 -80.29323 11601 ft 357 kts 302°
2026-05-07 20:31 26.34421 -80.31661 12246 ft 358 kts 302°
2026-05-07 20:31 26.35753 -80.34010 12904 ft 360 kts 302°
2026-05-07 20:31 26.37094 -80.36378 13521 ft 362 kts 302°
2026-05-07 20:31 26.38444 -80.38763 14123 ft 365 kts 302°
2026-05-07 20:32 26.39802 -80.41161 14675 ft 367 kts 302°
2026-05-07 20:32 26.41169 -80.43577 15238 ft 369 kts 302°
2026-05-07 20:32 26.42542 -80.46007 15805 ft 371 kts 302°
2026-05-07 20:32 26.43920 -80.48453 16358 ft 373 kts 302°
2026-05-07 20:33 26.45288 -80.50880 16908 ft 375 kts 302°
2026-05-07 20:33 26.46785 -80.53274 17447 ft 378 kts 310°
2026-05-07 20:33 26.48673 -80.55329 17980 ft 381 kts 321°
2026-05-07 20:33 26.50906 -80.56937 18487 ft 385 kts 331°
2026-05-07 20:34 26.53406 -80.58038 18930 ft 389 kts 341°
2026-05-07 20:34 26.56021 -80.58863 19378 ft 392 kts 341°
2026-05-07 20:34 26.58645 -80.59693 19822 ft 393 kts 341°
2026-05-07 20:34 26.61287 -80.60533 20257 ft 395 kts 341°
2026-05-07 20:35 26.63944 -80.61381 20681 ft 398 kts 341°
2026-05-07 20:35 26.66615 -80.62234 21096 ft 400 kts 340°
2026-05-07 20:35 26.69307 -80.63093 21510 ft 403 kts 340°
2026-05-07 20:35 26.72013 -80.63958 21911 ft 406 kts 340°
2026-05-07 20:36 26.74735 -80.64825 22308 ft 408 kts 340°
2026-05-07 20:36 26.77483 -80.65699 22698 ft 411 kts 340°
2026-05-07 20:36 26.80209 -80.66567 23079 ft 413 kts 340°
2026-05-07 20:36 26.82986 -80.67451 23464 ft 416 kts 340°
2026-05-07 20:37 26.85781 -80.68337 23797 ft 418 kts 340°
2026-05-07 20:37 26.88587 -80.69228 24141 ft 420 kts 339°
2026-05-07 20:37 26.91411 -80.70128 24487 ft 421 kts 339°
2026-05-07 20:37 26.94216 -80.71094 24820 ft 422 kts 337°
2026-05-07 20:38 26.97008 -80.72137 25149 ft 423 kts 336°
2026-05-07 20:38 26.99791 -80.73223 25482 ft 425 kts 336°
2026-05-07 20:38 27.02582 -80.74324 25794 ft 426 kts 336°
2026-05-07 20:38 27.05392 -80.75423 26119 ft 428 kts 336°
2026-05-07 20:39 27.08218 -80.76513 26450 ft 430 kts 336°
2026-05-07 20:39 27.11062 -80.77598 26756 ft 432 kts 336°
2026-05-07 20:39 27.13923 -80.78680 27073 ft 434 kts 336°
2026-05-07 20:39 27.16793 -80.79763 27386 ft 436 kts 336°
2026-05-07 20:40 27.19676 -80.80852 27719 ft 438 kts 336°
2026-05-07 20:40 27.22572 -80.81950 28028 ft 439 kts 336°
2026-05-07 20:40 27.25472 -80.83052 28321 ft 441 kts 336°
2026-05-07 20:40 27.28387 -80.84163 28606 ft 443 kts 336°
2026-05-07 20:41 27.31311 -80.85277 28902 ft 445 kts 336°
2026-05-07 20:41 27.34247 -80.86406 29185 ft 446 kts 335°
2026-05-07 20:41 27.37172 -80.87580 29467 ft 447 kts 335°
2026-05-07 20:41 27.40099 -80.88791 29751 ft 449 kts 334°
2026-05-07 20:42 27.43033 -80.90021 30050 ft 451 kts 334°
2026-05-07 20:42 27.45970 -80.91253 30353 ft 450 kts 334°
2026-05-07 20:42 27.48869 -80.92460 30700 ft 449 kts 334°
2026-05-07 20:42 27.51804 -80.93674 31041 ft 448 kts 334°
2026-05-07 20:43 27.54726 -80.94879 31386 ft 447 kts 334°
2026-05-07 20:43 27.57642 -80.96079 31737 ft 446 kts 334°
2026-05-07 20:43 27.60550 -80.97275 32097 ft 445 kts 334°
2026-05-07 20:43 27.63455 -80.98471 32454 ft 444 kts 334°
2026-05-07 20:44 27.66351 -80.99667 32816 ft 443 kts 334°
2026-05-07 20:44 27.69240 -81.00862 33183 ft 442 kts 334°
2026-05-07 20:44 27.72121 -81.02053 33545 ft 441 kts 334°
2026-05-07 20:44 27.74995 -81.03243 33902 ft 440 kts 334°
2026-05-07 20:45 27.77871 -81.04434 34018 ft 437 kts 334°
2026-05-07 20:45 27.83528 -81.06776 34021 ft 431 kts 334°
2026-05-07 20:46 27.89144 -81.09108 34024 ft 430 kts 334°
2026-05-07 20:46 27.94759 -81.11441 34027 ft 430 kts 334°
2026-05-07 20:47 28.00373 -81.13772 34027 ft 429 kts 334°
2026-05-07 20:47 28.05917 -81.16164 34031 ft 428 kts 332°
2026-05-07 20:48 28.11330 -81.18926 34043 ft 426 kts 329°
2026-05-07 20:48 28.16676 -81.21806 34044 ft 426 kts 329°
2026-05-07 20:49 28.22051 -81.24635 34042 ft 426 kts 329°
2026-05-07 20:49 28.27445 -81.27418 34036 ft 426 kts 330°
2026-05-07 20:50 28.32846 -81.30193 34024 ft 426 kts 329°
2026-05-07 20:50 28.38257 -81.32970 34019 ft 426 kts 330°
2026-05-07 20:51 28.43672 -81.35729 34033 ft 426 kts 329°
2026-05-07 20:51 28.49045 -81.38467 34029 ft 426 kts 329°
2026-05-07 20:52 28.54447 -81.41234 34025 ft 425 kts 329°
2026-05-07 20:52 28.59848 -81.44005 34020 ft 425 kts 329°
2026-05-07 20:53 28.65241 -81.46770 34017 ft 425 kts 329°
2026-05-07 20:53 28.70579 -81.49514 34042 ft 425 kts 329°
2026-05-07 20:54 28.75972 -81.52287 34039 ft 424 kts 329°
2026-05-07 20:54 28.81349 -81.55058 34037 ft 423 kts 329°
2026-05-07 20:55 28.86684 -81.57813 34037 ft 423 kts 329°
2026-05-07 20:55 28.92108 -81.60436 34029 ft 429 kts 336°
2026-05-07 20:56 28.98114 -81.61435 34023 ft 441 kts 348°
2026-05-07 20:56 29.04232 -81.61980 34038 ft 441 kts 347°
2026-05-07 20:57 29.10341 -81.62533 34031 ft 441 kts 347°
2026-05-07 20:57 29.16462 -81.63093 34022 ft 441 kts 347°
2026-05-07 20:58 29.22585 -81.63652 34023 ft 441 kts 347°
2026-05-07 20:58 29.28661 -81.64210 34044 ft 440 kts 347°
2026-05-07 20:59 29.34779 -81.64778 34031 ft 440 kts 347°
2026-05-07 20:59 29.40894 -81.65342 34029 ft 440 kts 347°
2026-05-07 21:00 29.47003 -81.65900 34028 ft 440 kts 347°
2026-05-07 21:00 29.52083 -81.66362 34028 ft 440 kts 346°
2026-05-07 21:01 29.58180 -81.66925 34047 ft 439 kts 346°
2026-05-07 21:01 29.64276 -81.67492 34036 ft 439 kts 346°
2026-05-07 21:02 29.70367 -81.68052 34029 ft 439 kts 346°
2026-05-07 21:02 29.76452 -81.68615 34019 ft 439 kts 346°
2026-05-07 21:03 29.82542 -81.69179 34015 ft 439 kts 346°
2026-05-07 21:03 29.88591 -81.69737 34034 ft 438 kts 346°
2026-05-07 21:04 29.94664 -81.70299 34013 ft 438 kts 346°
2026-05-07 21:04 30.00734 -81.70867 34001 ft 437 kts 346°
2026-05-07 21:05 30.06804 -81.71435 33990 ft 437 kts 346°
2026-05-07 21:05 30.12867 -81.72001 33975 ft 437 kts 346°
2026-05-07 21:06 30.18930 -81.72570 34002 ft 436 kts 346°
2026-05-07 21:06 30.24974 -81.73137 34044 ft 435 kts 346°
2026-05-07 21:07 30.31008 -81.73700 34036 ft 434 kts 346°
2026-05-07 21:07 30.37029 -81.74268 34033 ft 434 kts 346°
2026-05-07 21:08 30.43046 -81.74831 33939 ft 433 kts 346°
2026-05-07 21:08 30.49020 -81.75394 33935 ft 433 kts 346°
2026-05-07 21:09 30.55034 -81.75955 33933 ft 433 kts 346°
2026-05-07 21:09 30.61014 -81.76645 33944 ft 425 kts 339°
2026-05-07 21:09 30.63811 -81.77583 33951 ft 413 kts 329°
2026-05-07 21:10 30.66383 -81.78975 33959 ft 406 kts 325°
2026-05-07 21:10 30.71448 -81.81922 34006 ft 408 kts 326°
2026-05-07 21:11 30.76543 -81.84870 33996 ft 411 kts 326°
2026-05-07 21:11 30.84214 -81.89307 33973 ft 413 kts 326°
2026-05-07 21:12 30.89373 -81.92299 33977 ft 415 kts 326°
2026-05-07 21:12 30.94537 -81.95299 33966 ft 415 kts 326°
2026-05-07 21:13 30.99714 -81.98310 34029 ft 416 kts 326°
2026-05-07 21:13 31.04897 -82.01327 34003 ft 417 kts 326°
2026-05-07 21:14 31.10090 -82.04356 33965 ft 418 kts 326°
2026-05-07 21:14 31.15297 -82.07397 33962 ft 418 kts 326°
2026-05-07 21:15 31.20506 -82.10437 33952 ft 419 kts 326°
2026-05-07 21:15 31.25690 -82.13470 33962 ft 419 kts 326°
2026-05-07 21:16 31.30905 -82.16532 33984 ft 419 kts 325°
2026-05-07 21:16 31.36119 -82.19585 33980 ft 419 kts 325°
2026-05-07 21:17 31.41329 -82.22639 33974 ft 418 kts 325°
2026-05-07 21:17 31.46529 -82.25697 33971 ft 418 kts 325°
2026-05-07 21:18 31.51686 -82.28745 33964 ft 418 kts 325°
2026-05-07 21:18 31.56882 -82.31816 33975 ft 418 kts 325°
2026-05-07 21:19 31.62108 -82.34897 33933 ft 422 kts 324°
2026-05-07 21:19 31.67370 -82.38006 33926 ft 425 kts 324°
2026-05-07 21:20 31.72662 -82.41134 33931 ft 427 kts 324°
2026-05-07 21:20 31.77976 -82.44286 33930 ft 428 kts 324°
2026-05-07 21:21 31.83311 -82.47447 33934 ft 430 kts 324°
2026-05-07 21:21 31.88648 -82.50625 33955 ft 430 kts 323°
2026-05-07 21:22 31.93970 -82.53786 33950 ft 431 kts 323°
2026-05-07 21:22 31.98800 -82.57684 33940 ft 414 kts 310°
2026-05-07 21:23 32.03161 -82.62147 33940 ft 415 kts 310°
2026-05-07 21:23 32.07539 -82.66602 33944 ft 416 kts 310°
2026-05-07 21:24 32.11929 -82.71072 33947 ft 416 kts 310°
2026-05-07 21:24 32.16281 -82.75525 33539 ft 416 kts 310°
2026-05-07 21:25 32.18471 -82.77768 33283 ft 416 kts 310°
2026-05-07 21:25 32.20657 -82.80008 33037 ft 415 kts 310°
2026-05-07 21:25 32.22837 -82.82241 32784 ft 414 kts 310°
2026-05-07 21:25 32.25005 -82.84464 32534 ft 413 kts 310°
2026-05-07 21:26 32.27174 -82.86697 32284 ft 413 kts 310°
2026-05-07 21:26 32.29330 -82.88919 32036 ft 410 kts 310°
2026-05-07 21:26 32.31478 -82.91127 31795 ft 408 kts 310°
2026-05-07 21:26 32.33609 -82.93312 31566 ft 405 kts 310°
2026-05-07 21:27 32.35741 -82.95499 31316 ft 403 kts 310°
2026-05-07 21:27 32.37852 -82.97671 31075 ft 400 kts 309°
2026-05-07 21:27 32.39944 -82.99826 30849 ft 398 kts 309°
2026-05-07 21:27 32.42026 -83.01969 30612 ft 395 kts 309°
2026-05-07 21:28 32.44092 -83.04092 30428 ft 390 kts 309°
2026-05-07 21:28 32.46130 -83.06185 30119 ft 385 kts 309°
2026-05-07 21:28 32.48123 -83.08234 29498 ft 382 kts 309°
2026-05-07 21:28 32.50118 -83.10287 28917 ft 378 kts 309°
2026-05-07 21:29 32.52092 -83.12323 28335 ft 374 kts 309°
2026-05-07 21:29 32.54045 -83.14340 27778 ft 370 kts 309°
2026-05-07 21:29 32.55980 -83.16344 27216 ft 367 kts 309°
2026-05-07 21:29 32.57897 -83.18332 26660 ft 365 kts 309°
2026-05-07 21:30 32.59803 -83.20303 26103 ft 363 kts 309°
2026-05-07 21:30 32.61698 -83.22263 25558 ft 360 kts 309°
2026-05-07 21:30 32.63582 -83.24215 25024 ft 358 kts 309°
2026-05-07 21:30 32.65450 -83.26154 24497 ft 356 kts 309°
2026-05-07 21:31 32.67306 -83.28086 23974 ft 354 kts 309°
2026-05-07 21:31 32.69149 -83.30009 23465 ft 352 kts 309°
2026-05-07 21:31 32.70985 -83.31920 22909 ft 349 kts 309°
2026-05-07 21:31 32.72785 -83.33788 22449 ft 346 kts 309°
2026-05-07 21:32 32.74584 -83.35656 21984 ft 342 kts 309°
2026-05-07 21:32 32.76364 -83.37505 21521 ft 338 kts 309°
2026-05-07 21:32 32.78128 -83.39341 21063 ft 335 kts 309°
2026-05-07 21:32 32.79873 -83.41161 20611 ft 333 kts 309°
2026-05-07 21:33 32.81602 -83.42969 20145 ft 330 kts 309°
2026-05-07 21:33 32.83320 -83.44766 19701 ft 327 kts 309°
2026-05-07 21:33 32.85023 -83.46548 19222 ft 325 kts 309°
2026-05-07 21:33 32.86714 -83.48318 18752 ft 322 kts 308°
2026-05-07 21:34 32.88391 -83.50075 18269 ft 321 kts 308°
2026-05-07 21:34 32.90067 -83.51834 17630 ft 321 kts 309°
2026-05-07 21:34 32.91732 -83.53575 17230 ft 316 kts 309°
2026-05-07 21:34 32.93375 -83.55288 16805 ft 312 kts 309°
2026-05-07 21:35 32.95000 -83.56987 16345 ft 309 kts 309°
2026-05-07 21:35 32.96610 -83.58670 15883 ft 307 kts 309°
2026-05-07 21:35 32.98181 -83.60314 15434 ft 304 kts 310°
2026-05-07 21:35 32.99765 -83.61973 15008 ft 302 kts 310°
2026-05-07 21:36 33.01332 -83.63615 14540 ft 300 kts 310°
2026-05-07 21:36 33.02890 -83.65251 14091 ft 297 kts 310°
2026-05-07 21:36 33.04435 -83.66878 13657 ft 294 kts 311°
2026-05-07 21:36 33.05939 -83.68457 13509 ft 282 kts 310°
2026-05-07 21:37 33.07384 -83.69967 13375 ft 270 kts 310°
2026-05-07 21:37 33.08767 -83.71411 13240 ft 259 kts 310°
2026-05-07 21:37 33.10104 -83.72812 12957 ft 254 kts 310°
2026-05-07 21:37 33.11419 -83.74202 12570 ft 252 kts 310°
2026-05-07 21:38 33.12730 -83.75591 12407 ft 254 kts 310°
2026-05-07 21:38 33.14054 -83.76995 12281 ft 256 kts 310°
2026-05-07 21:38 33.15392 -83.78412 11928 ft 258 kts 311°
2026-05-07 21:38 33.16731 -83.79827 11552 ft 257 kts 311°
2026-05-07 21:39 33.18067 -83.81239 11190 ft 257 kts 311°
2026-05-07 21:39 33.19403 -83.82663 10832 ft 257 kts 310°
2026-05-07 21:39 33.20702 -83.84117 10477 ft 259 kts 310°
2026-05-07 21:39 33.22000 -83.85615 10135 ft 259 kts 309°
2026-05-07 21:40 33.23273 -83.87142 9774 ft 260 kts 308°
2026-05-07 21:40 33.24537 -83.88682 9390 ft 259 kts 308°
2026-05-07 21:40 33.25794 -83.90217 9024 ft 259 kts 309°
2026-05-07 21:40 33.27052 -83.91751 8642 ft 258 kts 309°
2026-05-07 21:41 33.28305 -83.93274 8283 ft 256 kts 309°
2026-05-07 21:41 33.29551 -83.94788 7998 ft 254 kts 309°
2026-05-07 21:41 33.30785 -83.96273 7978 ft 256 kts 309°
2026-05-07 21:41 33.32048 -83.97781 7983 ft 257 kts 310°
2026-05-07 21:42 33.33315 -83.99291 7989 ft 257 kts 310°
2026-05-07 21:42 33.34579 -84.00803 7993 ft 257 kts 310°
2026-05-07 21:42 33.35997 -84.02123 7994 ft 264 kts 326°
2026-05-07 21:42 33.37758 -84.02844 7997 ft 275 kts 345°
2026-05-07 21:43 33.39697 -84.02964 7993 ft 279 kts 349°
2026-05-07 21:43 33.41504 -84.03527 7651 ft 263 kts 328°
2026-05-07 21:43 33.43116 -84.04541 7214 ft 261 kts 324°
2026-05-07 21:43 33.44695 -84.05611 6886 ft 258 kts 324°
2026-05-07 21:44 33.46264 -84.06682 6615 ft 260 kts 324°
2026-05-07 21:44 33.47829 -84.07767 6325 ft 260 kts 324°
2026-05-07 21:44 33.49387 -84.08856 6029 ft 259 kts 324°
2026-05-07 21:44 33.50936 -84.09949 5729 ft 259 kts 324°
2026-05-07 21:45 33.52476 -84.11038 5446 ft 254 kts 324°
2026-05-07 21:45 33.53975 -84.12101 5197 ft 247 kts 324°
2026-05-07 21:45 33.55439 -84.13138 4958 ft 239 kts 324°
2026-05-07 21:45 33.56813 -84.14114 4799 ft 223 kts 324°
2026-05-07 21:46 33.58110 -84.15042 4593 ft 217 kts 324°
2026-05-07 21:46 33.59312 -84.16076 4388 ft 209 kts 306°
2026-05-07 21:46 33.60082 -84.17536 4190 ft 206 kts 295°
2026-05-07 21:46 33.60732 -84.19062 4059 ft 206 kts 294°
2026-05-07 21:47 33.61368 -84.20602 3931 ft 205 kts 294°
2026-05-07 21:47 33.61896 -84.22188 3811 ft 205 kts 287°
2026-05-07 21:47 33.62304 -84.23793 3683 ft 195 kts 285°
2026-05-07 21:47 33.62671 -84.25298 3559 ft 181 kts 285°
2026-05-07 21:48 33.63013 -84.26729 3447 ft 176 kts 285°
2026-05-07 21:48 33.63156 -84.28179 3221 ft 175 kts 272°
2026-05-07 21:48 33.63170 -84.29638 2989 ft 174 kts 272°
2026-05-07 21:48 33.63176 -84.31170 2767 ft 187 kts 272°
2026-05-07 21:49 33.63177 -84.32664 2516 ft 166 kts 271°
2026-05-07 21:49 33.63177 -84.33946 2303 ft 145 kts 271°
2026-05-07 21:49 33.63179 -84.35124 2116 ft 137 kts 272°
2026-05-07 21:49 33.63179 -84.36258 1944 ft 135 kts 272°
2026-05-07 21:50 33.63180 -84.37377 1776 ft 134 kts 273°
2026-05-07 21:50 33.63181 -84.38473 1598 ft 133 kts 275°
2026-05-07 21:50 33.63170 -84.39607 1414 ft 134 kts 275°
2026-05-07 21:50 33.63165 -84.40702 1263 ft 133 kts 276°
2026-05-07 21:51 33.63179 -84.41805 1063 ft 131 kts 276°
2026-05-07 21:51 33.63181 -84.42863 1008 ft 117 kts 274°
2026-05-07 21:51 33.63184 -84.43621 1008 ft 63 kts 269°
2026-05-07 21:51 33.63188 -84.43989 1004 ft 30 kts 277°
2026-05-07 21:52 33.63234 -84.44176 1006 ft 19 kts 293°
2026-05-07 21:52 33.63292 -84.44256 1006 ft 12 kts 340°
2026-05-07 21:52 33.63336 -84.44249 1006 ft 6 kts 29°
2026-05-07 21:52 33.63379 -84.44210 1006 ft 12 kts 33°
2026-05-07 21:53 33.63484 -84.44193 1007 ft 16 kts 360°
2026-05-07 21:53 33.63590 -84.44193 1007 ft 14 kts 360°
2026-05-07 21:53 33.63658 -84.44142 1007 ft 12 kts 72°
2026-05-07 21:53 33.63665 -84.44041 1007 ft 12 kts 88°
2026-05-07 21:54 33.63664 -84.43947 1007 ft 11 kts 91°
2026-05-07 21:54 33.63663 -84.43853 1006 ft 12 kts 89°
2026-05-07 21:54 33.63716 -84.43786 1006 ft 13 kts
2026-05-07 21:54 33.63821 -84.43784 1006 ft 16 kts
2026-05-07 21:55 33.63934 -84.43785 1006 ft 16 kts 359°
2026-05-07 21:55 33.64036 -84.43786 1006 ft 13 kts 360°
2026-05-07 21:55 33.64125 -84.43786 1006 ft 11 kts
2026-05-07 21:55 33.64172 -84.43828 1006 ft 9 kts 284°
2026-05-07 21:56 33.64173 -84.43869 1006 ft 2 kts 269°
2026-05-07 21:56 33.64173 -84.43870 1006 ft 0 kts 269°